Charleston, SC

4:21 AM EST on December 12, 2017 (GMT -0500)
Charleston Executive

Weather History for KJZI - December, 2013

Change the Weather History Date:

Saturday, December 14, 2013

  Actual Average (KCHS) Record (KCHS)
Temperature  
Mean Temperature 60 °F -  
Max Temperature 71 °F 62 °F 80 °F (2007)
Min Temperature 48 °F 40 °F 17 °F (1960)
Degree Days  
Heating Degree Days 6    
Growing Degree Days 10 (Base 50)    
Moisture  
Dew Point 58 °F    
Average Humidity 87    
Maximum Humidity 100    
Minimum Humidity 69    
Precipitation  
Precipitation 0.81 in - - ()
Sea Level Pressure  
Sea Level Pressure 30.02 in    
Wind  
Wind Speed 6 mph (SSW)    
Max Wind Speed 21 mph    
Max Gust Speed 30 mph    
Visibility 8 miles    
Events Rain    
Averages and records for this station are not official NWS values.
T = Trace of Precipitation, MM = Missing Value Source: NWS Daily Summary

Daily Weather History Graph

Daily Weather History Graph

Search for Another Location

Airport or City:

Trip Planner

Search our weather history database for the weather conditions in past years. The results will help you decide how hot, cold, wet, or windy it might be!

Date:

Astronomy

Dec. 14, 2013 Rise Set
Actual Time 7:14 AM EST 5:15 PM EST
Civil Twilight 6:47 AM EST 5:42 PM EST
Nautical Twilight 6:16 AM EST 6:13 PM EST
Astronomical Twilight 5:46 AM EST 6:43 PM EST
Moon 3:31 PM EST (12/14) 4:39 AM EST (12/14)
Length of Visible Light 10h 55m
Length of Day
10h 01m
Waxing Gibbous, 93% of the Moon is Illuminated
Dec 14
Waxing Gibbous
Dec 17
Full
Dec 25
Last Quarter
Jan 1
New
Jan 7
First Quarter

Hourly Weather History & Observations

Time (EST) Temp. Dew Point Humidity Pressure Visibility Wind Dir Wind Speed Gust Speed Precip Events Conditions
12:15 AM 48.2 °F 42.8 °F 82% 30.25 in 10.0 mi Calm Calm - 0.00 in   Partly Cloudy
12:35 AM 48.2 °F 42.8 °F 82% 30.23 in 10.0 mi Calm Calm - 0.00 in   Scattered Clouds
12:55 AM 50.0 °F 42.8 °F 76% 30.23 in 10.0 mi NNE 5.8 mph - 0.00 in   Partly Cloudy
1:15 AM 51.8 °F 44.6 °F 76% 30.22 in 10.0 mi NNE 5.8 mph - 0.00 in   Scattered Clouds
1:35 AM 51.8 °F 46.4 °F 82% 30.21 in 10.0 mi NNE 4.6 mph - 0.00 in   Partly Cloudy
1:55 AM 51.8 °F 46.4 °F 82% 30.20 in 10.0 mi NNE 6.9 mph - 0.00 in   Clear
2:15 AM 51.8 °F 46.4 °F 82% 30.18 in 10.0 mi NE 4.6 mph - 0.00 in   Clear
2:35 AM 53.6 °F 48.2 °F 82% 30.19 in 10.0 mi Calm Calm - 0.00 in   Clear
2:55 AM 53.6 °F 48.2 °F 82% 30.20 in 10.0 mi NNE 4.6 mph - 0.00 in   Partly Cloudy
3:15 AM 53.6 °F 48.2 °F 82% 30.19 in 10.0 mi Calm Calm - 0.00 in   Mostly Cloudy
3:35 AM 53.6 °F 48.2 °F 82% 30.19 in 10.0 mi Calm Calm - 0.00 in   Mostly Cloudy
3:55 AM 53.6 °F 48.2 °F 82% 30.19 in 10.0 mi Calm Calm - 0.00 in   Overcast
4:15 AM 53.6 °F 48.2 °F 82% 30.18 in 10.0 mi Calm Calm - 0.00 in   Overcast
4:35 AM 55.4 °F 48.2 °F 77% 30.18 in 10.0 mi Calm Calm - 0.00 in   Overcast
4:55 AM 55.4 °F 48.2 °F 77% 30.16 in 10.0 mi Calm Calm - 0.00 in   Overcast
5:15 AM 55.4 °F 50.0 °F 82% 30.15 in 10.0 mi NNE 4.6 mph - 0.00 in   Mostly Cloudy
5:35 AM 55.4 °F 51.8 °F 88% 30.15 in 10.0 mi NE 6.9 mph - 0.00 in   Overcast
5:55 AM 55.4 °F 51.8 °F 88% 30.14 in 10.0 mi North 4.6 mph - 0.00 in   Mostly Cloudy
6:15 AM 57.2 °F 53.6 °F 88% 30.15 in 10.0 mi NE 6.9 mph - 0.00 in   Mostly Cloudy
6:35 AM 57.2 °F 51.8 °F 82% 30.15 in 9.0 mi Calm Calm - 0.00 in   Overcast
6:55 AM 55.4 °F 53.6 °F 94% 30.16 in 10.0 mi Calm Calm - 0.00 in   Overcast
7:15 AM 55.4 °F 53.6 °F 94% 30.15 in 10.0 mi NE 3.5 mph - 0.00 in   Mostly Cloudy
7:35 AM 55.4 °F 53.6 °F 94% 30.15 in 10.0 mi North 4.6 mph - 0.00 in   Scattered Clouds
7:55 AM 57.2 °F 53.6 °F 88% 30.16 in 10.0 mi NNW 4.6 mph - 0.00 in   Mostly Cloudy
8:15 AM 57.2 °F 53.6 °F 88% 30.15 in 10.0 mi North 3.5 mph - 0.00 in   Scattered Clouds
8:35 AM 57.2 °F 55.4 °F 94% 30.16 in 10.0 mi Calm Calm - 0.00 in   Scattered Clouds
8:55 AM 57.2 °F 55.4 °F 94% 30.16 in 10.0 mi Calm Calm - 0.00 in   Mostly Cloudy
9:15 AM 59.0 °F 55.4 °F 88% 30.16 in 10.0 mi Calm Calm - 0.00 in   Mostly Cloudy
9:35 AM 59.0 °F 55.4 °F 88% 30.15 in 10.0 mi Calm Calm - 0.00 in   Mostly Cloudy
9:55 AM 60.8 °F 55.4 °F 82% 30.15 in 10.0 mi Calm Calm - 0.00 in   Mostly Cloudy
10:15 AM 64.4 °F 57.2 °F 77% 30.12 in 10.0 mi Calm Calm - 0.00 in   Partly Cloudy
10:35 AM 68.0 °F 59.0 °F 73% 30.10 in 10.0 mi SE 5.8 mph - 0.00 in   Partly Cloudy
10:55 AM 69.8 °F 60.8 °F 73% 30.09 in 10.0 mi SE 10.4 mph - 0.00 in   Partly Cloudy
11:15 AM 71.6 °F 60.8 °F 69% 30.07 in 10.0 mi SE 12.7 mph 17.3 mph 0.00 in   Scattered Clouds
11:35 AM 71.6 °F 60.8 °F 69% 30.05 in 10.0 mi SE 12.7 mph - 0.00 in   Mostly Cloudy
11:55 AM 71.6 °F 60.8 °F 69% 30.03 in 10.0 mi SSE 9.2 mph 18.4 mph 0.00 in   Overcast
12:15 PM 69.8 °F 60.8 °F 73% 30.01 in 10.0 mi SSE 10.4 mph 17.3 mph 0.00 in   Overcast
12:35 PM 69.8 °F 60.8 °F 73% 29.99 in 10.0 mi SSE 9.2 mph 16.1 mph 0.00 in   Overcast
12:55 PM 69.8 °F 60.8 °F 73% 29.97 in 8.0 mi SSE 10.4 mph 18.4 mph 0.00 in   Overcast
1:15 PM 69.8 °F 60.8 °F 73% 29.96 in 9.0 mi SSE 11.5 mph 17.3 mph 0.00 in   Light Drizzle
1:35 PM 69.8 °F 62.6 °F 78% 29.94 in 7.0 mi SSE 12.7 mph 20.7 mph 0.00 in   Overcast
1:55 PM 68.0 °F 64.4 °F 88% 29.92 in 7.0 mi SSE 15.0 mph 23.0 mph 0.00 in   Overcast
2:15 PM 68.0 °F 64.4 °F 88% 29.91 in 2.5 mi South 13.8 mph 23.0 mph 0.01 in   Overcast
2:35 PM 66.2 °F 64.4 °F 94% 29.92 in 1.8 mi South 17.3 mph - 0.05 in   Overcast
2:55 PM 66.2 °F 64.4 °F 94% 29.89 in 0.8 mi South 15.0 mph 19.6 mph 0.30 in   Overcast
3:15 PM 66.2 °F 64.4 °F 94% 29.91 in 1.0 mi SW 15.0 mph 21.9 mph 0.12 in Rain Heavy Rain
3:35 PM 66.2 °F 66.2 °F 100% 29.90 in 2.0 mi South 16.1 mph - 0.16 in   Overcast
3:55 PM 68.0 °F 66.2 °F 94% 29.90 in 2.0 mi SSW 10.4 mph - 0.20 in   Overcast
4:15 PM 66.2 °F 66.2 °F 100% 29.90 in 3.0 mi SW 9.2 mph - 0.00 in   Overcast
4:35 PM 66.2 °F 66.2 °F 100% 29.89 in 2.5 mi SSW 10.4 mph - 0.00 in   Overcast
4:55 PM 66.2 °F 66.2 °F 100% 29.89 in 3.0 mi SSW 9.2 mph - 0.00 in   Overcast
5:15 PM 68.0 °F 66.2 °F 94% 29.90 in 4.0 mi SW 11.5 mph 18.4 mph 0.00 in   Overcast
5:35 PM 68.0 °F 66.2 °F 94% 29.89 in 5.0 mi SSW 11.5 mph 20.7 mph 0.00 in   Mostly Cloudy
5:55 PM 68.0 °F 66.2 °F 94% 29.88 in 5.0 mi SSW 15.0 mph 24.2 mph 0.00 in   Partly Cloudy
6:15 PM 69.8 °F 66.2 °F 88% 29.89 in 5.0 mi SSW 16.1 mph 28.8 mph 0.00 in   Partly Cloudy
6:35 PM 68.0 °F 66.2 °F 94% 29.89 in 3.0 mi SSW 17.3 mph 23.0 mph 0.02 in Rain Rain
6:55 PM 68.0 °F 66.2 °F 94% 29.88 in 2.5 mi SW 16.1 mph 24.2 mph 0.09 in   Mostly Cloudy
7:15 PM 68.0 °F 66.2 °F 94% 29.87 in 4.0 mi SSW 18.4 mph 21.9 mph 0.01 in Rain Light Rain
7:35 PM 68.0 °F 66.2 °F 94% 29.87 in 4.0 mi SW 13.8 mph 24.2 mph 0.02 in   Light Drizzle
7:55 PM 68.0 °F 66.2 °F 94% 29.87 in 5.0 mi SW 17.3 mph 23.0 mph 0.02 in   Overcast
8:15 PM 66.2 °F 66.2 °F 100% 29.87 in 4.0 mi SW 17.3 mph 26.5 mph 0.00 in   Overcast
8:35 PM 66.2 °F 64.4 °F 94% 29.88 in 2.0 mi SW 16.1 mph 29.9 mph 0.04 in   Overcast
8:55 PM 66.2 °F 66.2 °F 100% 29.86 in 5.0 mi SW 15.0 mph 23.0 mph 0.06 in   Mostly Cloudy
9:15 PM 66.2 °F 64.4 °F 94% 29.85 in 5.0 mi SW 20.7 mph 28.8 mph 0.01 in   Scattered Clouds
9:35 PM 66.2 °F 62.6 °F 88% 29.85 in 7.0 mi SW 17.3 mph 29.9 mph 0.13 in   Partly Cloudy
9:55 PM 66.2 °F 64.4 °F 94% 29.84 in 5.0 mi SW 18.4 mph 29.9 mph 0.14 in   Mostly Cloudy
10:15 PM 66.2 °F 64.4 °F 94% 29.83 in 5.0 mi SW 16.1 mph 26.5 mph 0.00 in   Mostly Cloudy
10:35 PM 66.2 °F 64.4 °F 94% 29.83 in 8.0 mi SW 15.0 mph 21.9 mph 0.00 in   Mostly Cloudy
10:55 PM 66.2 °F 64.4 °F 94% 29.83 in 10.0 mi SW 15.0 mph 20.7 mph 0.00 in   Scattered Clouds
11:15 PM 66.2 °F 64.4 °F 94% 29.83 in 8.0 mi SW 16.1 mph 20.7 mph 0.00 in   Mostly Cloudy
11:35 PM 66.2 °F 64.4 °F 94% 29.84 in 7.0 mi WSW 12.7 mph 27.6 mph 0.00 in   Overcast
11:55 PM 64.4 °F 64.4 °F 100% 29.83 in 5.0 mi Calm Calm - 0.00 in   Overcast